Time,TemperatureF,DewpointF,PressureIn,WindDirection,WindDirectionDegrees,WindSpeedMPH,WindSpeedGustMPH,Humidity,HourlyPrecipIn,Conditions,Clouds,dailyrainin,SoftwareType,DateUTC
2013-01-02 00:02:00,25.8,19.0,30.04,NW,304,2.0,3.0,75,0.00,,,0.00,Wunderground v.1.15,2013-01-02 05:02:00,
2013-01-02 00:04:00,25.7,18.9,30.04,NW,304,2.0,3.0,75,0.00,,,0.00,Wunderground v.1.15,2013-01-02 05:04:00,
2013-01-02 00:06:00,25.7,18.9,30.04,NW,304,2.0,3.0,75,0.00,,,0.00,Wunderground v.1.15,2013-01-02 05:06:00,
2013-01-02 00:12:00,25.4,18.9,30.05,NW,304,2.0,2.0,76,0.00,,,0.00,Wunderground v.1.15,2013-01-02 05:12:00,
2013-01-02 00:14:00,25.4,18.9,30.05,NW,304,2.0,2.0,76,0.00,,,0.00,Wunderground v.1.15,2013-01-02 05:14:00,
2013-01-02 00:20:00,25.3,19.1,30.04,NW,304,0.0,0.0,77,0.00,,,0.00,Wunderground v.1.15,2013-01-02 05:20:00,
2013-01-02 00:26:00,25.2,19.0,30.04,NW,304,0.0,0.0,77,0.00,,,0.00,Wunderground v.1.15,2013-01-02 05:26:00,
2013-01-02 00:32:00,25.1,18.9,30.03,NW,304,1.0,2.0,77,0.00,,,0.00,Wunderground v.1.15,2013-01-02 05:32:00,
2013-01-02 00:38:00,24.9,19.0,30.04,NW,304,1.0,2.0,78,0.00,,,0.00,Wunderground v.1.15,2013-01-02 05:38:00,
2013-01-02 00:44:00,24.9,19.0,30.04,NW,304,1.0,1.0,78,0.00,,,0.00,Wunderground v.1.15,2013-01-02 05:44:00,
2013-01-02 00:50:00,24.9,18.7,30.04,NW,322,2.0,2.0,77,0.00,,,0.00,Wunderground v.1.15,2013-01-02 05:50:00,
2013-01-02 00:56:00,24.9,18.7,30.04,NW,324,2.0,2.0,77,0.00,,,0.00,Wunderground v.1.15,2013-01-02 05:56:00,
2013-01-02 01:02:00,25.0,18.5,30.05,NW,305,1.0,1.0,76,0.00,,,0.00,Wunderground v.1.15,2013-01-02 06:02:00,
2013-01-02 01:08:00,25.1,18.6,30.04,NW,305,2.0,2.0,76,0.00,,,0.00,Wunderground v.1.15,2013-01-02 06:08:00,
2013-01-02 01:14:00,25.1,18.6,30.04,NW,311,2.0,4.0,76,0.00,,,0.00,Wunderground v.1.15,2013-01-02 06:14:00,
2013-01-02 01:20:00,25.0,18.5,30.04,NW,310,3.0,3.0,76,0.00,,,0.00,Wunderground v.1.15,2013-01-02 06:20:00,
2013-01-02 01:26:00,24.9,18.4,30.04,NW,310,2.0,3.0,76,0.00,,,0.00,Wunderground v.1.15,2013-01-02 06:26:00,
2013-01-02 01:32:00,24.9,18.4,30.04,NW,310,1.0,3.0,76,0.00,,,0.00,Wunderground v.1.15,2013-01-02 06:32:00,
2013-01-02 01:38:00,24.9,18.4,30.03,WSW,251,2.0,6.0,76,0.00,,,0.00,Wunderground v.1.15,2013-01-02 06:38:00,
2013-01-02 01:44:00,24.9,18.4,30.04,SW,225,5.0,9.0,76,0.00,,,0.00,Wunderground v.1.15,2013-01-02 06:44:00,
2013-01-02 01:50:00,24.9,18.4,30.04,WSW,240,6.0,6.0,76,0.00,,,0.00,Wunderground v.1.15,2013-01-02 06:50:00,
2013-01-02 01:56:00,24.8,18.3,30.04,WSW,258,5.0,6.0,76,0.00,,,0.00,Wunderground v.1.15,2013-01-02 06:56:00,
2013-01-02 02:02:00,24.7,17.9,30.04,WSW,238,4.0,5.0,75,0.00,,,0.00,Wunderground v.1.15,2013-01-02 07:02:00,
2013-01-02 02:08:00,24.7,17.9,30.04,WSW,254,4.0,5.0,75,0.00,,,0.00,Wunderground v.1.15,2013-01-02 07:08:00,
2013-01-02 02:14:00,24.6,17.8,30.04,WSW,258,4.0,5.0,75,0.00,,,0.00,Wunderground v.1.15,2013-01-02 07:14:00,
2013-01-02 02:20:00,24.4,17.6,30.04,NNW,340,4.0,5.0,75,0.00,,,0.00,Wunderground v.1.15,2013-01-02 07:20:00,
2013-01-02 02:26:00,24.3,17.5,30.04,NW,315,5.0,7.0,75,0.00,,,0.00,Wunderground v.1.15,2013-01-02 07:26:00,
2013-01-02 02:32:00,24.2,17.4,30.06,NW,313,4.0,4.0,75,0.00,,,0.00,Wunderground v.1.15,2013-01-02 07:32:00,
2013-01-02 02:38:00,24.1,17.3,30.06,NW,317,1.0,5.0,75,0.00,,,0.00,Wunderground v.1.15,2013-01-02 07:38:00,
2013-01-02 02:44:00,23.9,17.4,30.06,NW,323,1.0,2.0,76,0.00,,,0.00,Wunderground v.1.15,2013-01-02 07:44:00,
2013-01-02 02:50:00,23.8,17.3,30.07,West,279,1.0,2.0,76,0.00,,,0.00,Wunderground v.1.15,2013-01-02 07:50:00,
2013-01-02 02:56:00,23.8,17.0,30.07,SW,231,2.0,6.0,75,0.00,,,0.00,Wunderground v.1.15,2013-01-02 07:56:00,
2013-01-02 03:02:00,23.7,16.6,30.06,SSW,208,5.0,7.0,74,0.00,,,0.00,Wunderground v.1.15,2013-01-02 08:02:00,
2013-01-02 03:08:00,23.5,16.4,30.06,SSW,209,5.0,7.0,74,0.00,,,0.00,Wunderground v.1.15,2013-01-02 08:08:00,
2013-01-02 03:14:00,23.3,16.2,30.06,WSW,252,4.0,6.0,74,0.00,,,0.00,Wunderground v.1.15,2013-01-02 08:14:00,
2013-01-02 03:20:00,23.1,16.0,30.07,West,276,3.0,3.0,74,0.00,,,0.00,Wunderground v.1.15,2013-01-02 08:20:00,
2013-01-02 03:26:00,23.0,15.6,30.07,WNW,302,2.0,3.0,73,0.00,,,0.00,Wunderground v.1.15,2013-01-02 08:26:00,
2013-01-02 03:32:00,22.9,15.8,30.08,SW,231,2.0,7.0,74,0.00,,,0.00,Wunderground v.1.15,2013-01-02 08:32:00,
2013-01-02 03:38:00,22.8,15.8,30.08,SSW,199,5.0,7.0,74,0.00,,,0.00,Wunderground v.1.15,2013-01-02 08:38:00,
2013-01-02 03:44:00,22.7,15.3,30.08,SW,228,6.0,9.0,73,0.00,,,0.00,Wunderground v.1.15,2013-01-02 08:44:00,
2013-01-02 03:50:00,22.5,15.5,30.07,WSW,240,6.0,9.0,74,0.00,,,0.00,Wunderground v.1.15,2013-01-02 08:50:00,
2013-01-02 03:56:00,22.4,15.4,30.08,SW,235,6.0,9.0,74,0.00,,,0.00,Wunderground v.1.15,2013-01-02 08:56:00,
2013-01-02 04:02:00,22.4,15.4,30.08,West,275,6.0,6.0,74,0.00,,,0.00,Wunderground v.1.15,2013-01-02 09:02:00,
2013-01-02 04:08:00,22.3,15.3,30.08,West,271,5.0,6.0,74,0.00,,,0.00,Wunderground v.1.15,2013-01-02 09:08:00,
2013-01-02 04:14:00,22.2,15.2,30.08,West,279,5.0,5.0,74,0.00,,,0.00,Wunderground v.1.15,2013-01-02 09:14:00,
2013-01-02 04:20:00,22.1,15.1,30.08,West,263,5.0,8.0,74,0.00,,,0.00,Wunderground v.1.15,2013-01-02 09:20:00,
2013-01-02 04:26:00,22.1,15.1,30.08,NW,318,5.0,8.0,74,0.00,,,0.00,Wunderground v.1.15,2013-01-02 09:26:00,
2013-01-02 04:32:00,22.0,15.0,30.07,West,266,4.0,5.0,74,0.00,,,0.00,Wunderground v.1.15,2013-01-02 09:32:00,
2013-01-02 04:38:00,21.9,14.9,30.07,WNW,288,4.0,6.0,74,0.00,,,0.00,Wunderground v.1.15,2013-01-02 09:38:00,
2013-01-02 04:44:00,21.8,14.8,30.07,WNW,284,4.0,6.0,74,0.00,,,0.00,Wunderground v.1.15,2013-01-02 09:44:00,
2013-01-02 04:50:00,21.8,14.8,30.08,WNW,288,3.0,4.0,74,0.00,,,0.00,Wunderground v.1.15,2013-01-02 09:50:00,
2013-01-02 04:56:00,21.7,14.7,30.08,WNW,284,4.0,8.0,74,0.00,,,0.00,Wunderground v.1.15,2013-01-02 09:56:00,
2013-01-02 05:02:00,21.6,14.6,30.07,West,265,5.0,5.0,74,0.00,,,0.00,Wunderground v.1.15,2013-01-02 10:02:00,
2013-01-02 05:08:00,21.5,14.5,30.08,NW,319,4.0,5.0,74,0.00,,,0.00,Wunderground v.1.15,2013-01-02 10:08:00,
2013-01-02 05:14:00,21.3,14.0,30.08,West,279,5.0,6.0,73,0.00,,,0.00,Wunderground v.1.15,2013-01-02 10:14:00,
2013-01-02 05:20:00,21.2,14.2,30.08,West,281,4.0,4.0,74,0.00,,,0.00,Wunderground v.1.15,2013-01-02 10:20:00,
2013-01-02 05:26:00,21.2,14.2,30.08,West,267,4.0,7.0,74,0.00,,,0.00,Wunderground v.1.15,2013-01-02 10:26:00,
2013-01-02 05:32:00,21.1,13.8,30.08,West,267,5.0,6.0,73,0.00,,,0.00,Wunderground v.1.15,2013-01-02 10:32:00,
2013-01-02 05:38:00,21.0,14.0,30.09,West,259,6.0,9.0,74,0.00,,,0.00,Wunderground v.1.15,2013-01-02 10:38:00,
2013-01-02 05:44:00,20.8,13.8,30.09,West,259,6.0,9.0,74,0.00,,,0.00,Wunderground v.1.15,2013-01-02 10:44:00,
2013-01-02 05:50:00,20.8,13.8,30.09,West,259,6.0,6.0,74,0.00,,,0.00,Wunderground v.1.15,2013-01-02 10:50:00,
2013-01-02 05:56:00,20.8,13.5,30.09,WNW,289,7.0,8.0,73,0.00,,,0.00,Wunderground v.1.15,2013-01-02 10:56:00,
2013-01-02 06:02:00,20.6,13.3,30.09,WNW,300,6.0,6.0,73,0.00,,,0.00,Wunderground v.1.15,2013-01-02 11:02:00,
2013-01-02 06:08:00,20.6,13.3,30.10,WSW,256,6.0,9.0,73,0.00,,,0.00,Wunderground v.1.15,2013-01-02 11:08:00,
2013-01-02 06:14:00,20.4,13.1,30.10,West,277,7.0,8.0,73,0.00,,,0.00,Wunderground v.1.15,2013-01-02 11:14:00,
2013-01-02 06:20:00,20.3,13.0,30.10,West,269,8.0,8.0,73,0.00,,,0.00,Wunderground v.1.15,2013-01-02 11:20:00,
2013-01-02 06:26:00,20.4,13.1,30.10,WSW,249,8.0,13.0,73,0.00,,,0.00,Wunderground v.1.15,2013-01-02 11:26:00,
2013-01-02 06:32:00,20.2,12.9,30.10,WNW,282,8.0,8.0,73,0.00,,,0.00,Wunderground v.1.15,2013-01-02 11:32:00,
2013-01-02 06:38:00,20.2,12.9,30.11,West,281,6.0,8.0,73,0.00,,,0.00,Wunderground v.1.15,2013-01-02 11:38:00,
2013-01-02 06:44:00,20.1,12.8,30.11,West,271,4.0,5.0,73,0.00,,,0.00,Wunderground v.1.15,2013-01-02 11:44:00,
2013-01-02 06:50:00,20.1,13.1,30.11,WNW,289,4.0,4.0,74,0.00,,,0.00,Wunderground v.1.15,2013-01-02 11:50:00,
2013-01-02 06:56:00,20.2,12.9,30.12,West,280,6.0,10.0,73,0.00,,,0.00,Wunderground v.1.15,2013-01-02 11:56:00,
2013-01-02 07:02:00,20.2,12.9,30.11,West,273,6.0,10.0,73,0.00,,,0.00,Wunderground v.1.15,2013-01-02 12:02:00,
2013-01-02 07:08:00,20.2,13.2,30.12,WNW,283,6.0,10.0,74,0.00,,,0.00,Wunderground v.1.15,2013-01-02 12:08:00,
2013-01-02 07:14:00,20.3,13.3,30.12,West,265,4.0,7.0,74,0.00,,,0.00,Wunderground v.1.15,2013-01-02 12:14:00,
2013-01-02 07:20:00,20.3,13.3,30.13,West,269,4.0,4.0,74,0.00,,,0.00,Wunderground v.1.15,2013-01-02 12:20:00,
2013-01-02 07:26:00,20.4,13.4,30.13,SW,217,4.0,7.0,74,0.00,,,0.00,Wunderground v.1.15,2013-01-02 12:26:00,
2013-01-02 07:32:00,20.4,13.4,30.13,West,271,6.0,6.0,74,0.00,,,0.00,Wunderground v.1.15,2013-01-02 12:32:00,
2013-01-02 07:38:00,20.4,13.1,30.14,WSW,243,6.0,11.0,73,0.00,,,0.00,Wunderground v.1.15,2013-01-02 12:38:00,
2013-01-02 07:44:00,20.5,13.2,30.14,West,264,8.0,11.0,73,0.00,,,0.00,Wunderground v.1.15,2013-01-02 12:44:00,
2013-01-02 07:50:00,20.5,13.2,30.14,West,267,8.0,8.0,73,0.00,,,0.00,Wunderground v.1.15,2013-01-02 12:50:00,
2013-01-02 07:56:00,20.6,13.3,30.14,West,264,8.0,10.0,73,0.00,,,0.00,Wunderground v.1.15,2013-01-02 12:56:00,
2013-01-02 08:02:00,20.5,13.2,30.14,West,267,7.0,9.0,73,0.00,,,0.00,Wunderground v.1.15,2013-01-02 13:02:00,
2013-01-02 08:08:00,20.6,13.3,30.14,West,268,8.0,9.0,73,0.00,,,0.00,Wunderground v.1.15,2013-01-02 13:08:00,
2013-01-02 08:14:00,20.6,13.3,30.14,WSW,248,9.0,10.0,73,0.00,,,0.00,Wunderground v.1.15,2013-01-02 13:14:00,
2013-01-02 08:20:00,20.7,13.4,30.14,WNW,296,8.0,8.0,73,0.00,,,0.00,Wunderground v.1.15,2013-01-02 13:20:00,
2013-01-02 08:26:00,20.7,13.4,30.15,West,269,7.0,12.0,73,0.00,,,0.00,Wunderground v.1.15,2013-01-02 13:26:00,
2013-01-02 08:32:00,20.7,13.4,30.15,WNW,291,6.0,9.0,73,0.00,,,0.00,Wunderground v.1.15,2013-01-02 13:32:00,
2013-01-02 08:38:00,20.7,13.4,30.15,WNW,298,7.0,9.0,73,0.00,,,0.00,Wunderground v.1.15,2013-01-02 13:38:00,
2013-01-02 08:44:00,20.7,13.4,30.15,West,264,8.0,8.0,73,0.00,,,0.00,Wunderground v.1.15,2013-01-02 13:44:00,
2013-01-02 08:50:00,20.8,13.5,30.15,WNW,286,6.0,6.0,73,0.00,,,0.00,Wunderground v.1.15,2013-01-02 13:50:00,
2013-01-02 08:56:00,20.7,13.7,30.16,WSW,258,7.0,7.0,74,0.00,,,0.00,Wunderground v.1.15,2013-01-02 13:56:00,
2013-01-02 09:02:00,20.9,13.6,30.15,West,273,7.0,7.0,73,0.00,,,0.00,Wunderground v.1.15,2013-01-02 14:02:00,
2013-01-02 09:08:00,21.0,13.7,30.16,West,262,7.0,8.0,73,0.00,,,0.00,Wunderground v.1.15,2013-01-02 14:08:00,
2013-01-02 09:14:00,21.1,13.8,30.16,West,263,7.0,12.0,73,0.00,,,0.00,Wunderground v.1.15,2013-01-02 14:14:00,
2013-01-02 09:20:00,21.2,13.9,30.16,West,266,7.0,7.0,73,0.00,,,0.00,Wunderground v.1.15,2013-01-02 14:20:00,
2013-01-02 09:26:00,21.4,13.8,30.16,West,275,7.0,10.0,72,0.00,,,0.00,Wunderground v.1.15,2013-01-02 14:26:00,
2013-01-02 09:32:00,21.4,13.8,30.16,WSW,253,7.0,7.0,72,0.00,,,0.00,Wunderground v.1.15,2013-01-02 14:32:00,
2013-01-02 09:38:00,21.6,14.0,30.16,West,259,6.0,7.0,72,0.00,,,0.00,Wunderground v.1.15,2013-01-02 14:38:00,
2013-01-02 09:44:00,21.8,13.8,30.17,NW,311,5.0,9.0,71,0.00,,,0.00,Wunderground v.1.15,2013-01-02 14:44:00,
2013-01-02 09:50:00,21.7,13.7,30.17,WSW,255,7.0,7.0,71,0.00,,,0.00,Wunderground v.1.15,2013-01-02 14:50:00,
2013-01-02 09:56:00,21.7,13.7,30.16,WSW,249,7.0,16.0,71,0.00,,,0.00,Wunderground v.1.15,2013-01-02 14:56:00,
2013-01-02 10:02:00,21.8,14.2,30.17,WSW,243,7.0,10.0,72,0.00,,,0.00,Wunderground v.1.15,2013-01-02 15:02:00,
2013-01-02 10:08:00,22.0,14.7,30.17,WNW,287,6.0,10.0,73,0.00,,,0.00,Wunderground v.1.15,2013-01-02 15:08:00,
2013-01-02 10:14:00,22.4,15.1,30.17,West,271,6.0,6.0,73,0.00,,,0.00,Wunderground v.1.15,2013-01-02 15:14:00,
2013-01-02 10:20:00,22.2,14.5,30.17,WSW,248,6.0,10.0,72,0.00,,,0.00,Wunderground v.1.15,2013-01-02 15:20:00,
2013-01-02 10:26:00,22.5,14.5,30.17,WSW,246,6.0,10.0,71,0.00,,,0.00,Wunderground v.1.15,2013-01-02 15:26:00,
2013-01-02 10:32:00,22.8,14.5,30.17,WNW,286,5.0,6.0,70,0.00,,,0.00,Wunderground v.1.15,2013-01-02 15:32:00,
2013-01-02 10:38:00,22.8,14.8,30.17,WSW,248,5.0,6.0,71,0.00,,,0.00,Wunderground v.1.15,2013-01-02 15:38:00,
2013-01-02 10:44:00,23.2,15.2,30.17,WSW,242,6.0,6.0,71,0.00,,,0.00,Wunderground v.1.15,2013-01-02 15:44:00,
2013-01-02 10:50:00,23.4,15.1,30.17,WSW,242,6.0,7.0,70,0.00,,,0.00,Wunderground v.1.15,2013-01-02 15:50:00,
2013-01-02 10:56:00,24.0,15.3,30.17,West,279,4.0,7.0,69,0.00,,,0.00,Wunderground v.1.15,2013-01-02 15:56:00,
2013-01-02 11:02:00,23.6,14.6,30.16,WNW,286,4.0,4.0,68,0.00,,,0.00,Wunderground v.1.15,2013-01-02 16:02:00,
2013-01-02 11:08:00,23.3,14.3,30.17,West,271,5.0,7.0,68,0.00,,,0.00,Wunderground v.1.15,2013-01-02 16:08:00,
2013-01-02 11:14:00,23.1,14.1,30.17,SW,233,7.0,10.0,68,0.00,,,0.00,Wunderground v.1.15,2013-01-02 16:14:00,
2013-01-02 11:20:00,23.2,14.2,30.17,West,269,8.0,8.0,68,0.00,,,0.00,Wunderground v.1.15,2013-01-02 16:20:00,
2013-01-02 11:26:00,23.2,14.2,30.16,West,272,8.0,8.0,68,0.00,,,0.00,Wunderground v.1.15,2013-01-02 16:26:00,
2013-01-02 11:32:00,23.3,14.3,30.16,West,275,8.0,10.0,68,0.00,,,0.00,Wunderground v.1.15,2013-01-02 16:32:00,
2013-01-02 11:38:00,23.6,14.2,30.16,WNW,286,7.0,10.0,67,0.00,,,0.00,Wunderground v.1.15,2013-01-02 16:38:00,
2013-01-02 11:44:00,24.1,14.7,30.16,West,277,5.0,7.0,67,0.00,,,0.00,Wunderground v.1.15,2013-01-02 16:44:00,
2013-01-02 11:50:00,23.8,14.4,30.15,WNW,295,6.0,6.0,67,0.00,,,0.00,Wunderground v.1.15,2013-01-02 16:50:00,
2013-01-02 11:56:00,23.9,14.5,30.16,WNW,291,7.0,9.0,67,0.00,,,0.00,Wunderground v.1.15,2013-01-02 16:56:00,
2013-01-02 12:02:00,23.8,14.1,30.16,WNW,283,8.0,11.0,66,0.00,,,0.00,Wunderground v.1.15,2013-01-02 17:02:00,
2013-01-02 12:08:00,23.8,14.4,30.16,West,270,10.0,11.0,67,0.00,,,0.00,Wunderground v.1.15,2013-01-02 17:08:00,
2013-01-02 12:14:00,23.8,14.1,30.16,WNW,283,9.0,10.0,66,0.00,,,0.00,Wunderground v.1.15,2013-01-02 17:14:00,
2013-01-02 12:20:00,24.0,14.3,30.15,West,268,8.0,8.0,66,0.00,,,0.00,Wunderground v.1.15,2013-01-02 17:20:00,
2013-01-02 12:26:00,24.3,14.2,30.16,SW,235,8.0,10.0,65,0.00,,,0.00,Wunderground v.1.15,2013-01-02 17:26:00,
2013-01-02 12:32:00,24.7,13.9,30.16,WSW,244,8.0,8.0,63,0.00,,,0.00,Wunderground v.1.15,2013-01-02 17:32:00,
2013-01-02 12:38:00,24.7,14.2,30.16,West,259,8.0,11.0,64,0.00,,,0.00,Wunderground v.1.15,2013-01-02 17:38:00,
2013-01-02 12:44:00,24.9,14.1,30.15,West,268,9.0,10.0,63,0.00,,,0.00,Wunderground v.1.15,2013-01-02 17:44:00,
2013-01-02 12:50:00,24.8,13.6,30.16,West,270,9.0,9.0,62,0.00,,,0.00,Wunderground v.1.15,2013-01-02 17:50:00,
2013-01-02 12:56:00,25.0,14.2,30.16,SW,227,9.0,14.0,63,0.00,,,0.00,Wunderground v.1.15,2013-01-02 17:56:00,
2013-01-02 13:02:00,25.2,14.4,30.16,West,275,9.0,9.0,63,0.00,,,0.00,Wunderground v.1.15,2013-01-02 18:02:00,
2013-01-02 13:08:00,25.2,14.4,30.16,WNW,286,8.0,10.0,63,0.00,,,0.00,Wunderground v.1.15,2013-01-02 18:08:00,
2013-01-02 13:14:00,25.0,13.8,30.16,WSW,246,9.0,14.0,62,0.00,,,0.00,Wunderground v.1.15,2013-01-02 18:14:00,
2013-01-02 13:20:00,25.0,13.8,30.16,WNW,293,10.0,11.0,62,0.00,,,0.00,Wunderground v.1.15,2013-01-02 18:20:00,
2013-01-02 13:26:00,24.9,13.7,30.15,West,275,9.0,11.0,62,0.00,,,0.00,Wunderground v.1.15,2013-01-02 18:26:00,
2013-01-02 13:32:00,24.8,13.6,30.16,WNW,292,9.0,10.0,62,0.00,,,0.00,Wunderground v.1.15,2013-01-02 18:32:00,
2013-01-02 13:38:00,25.0,13.8,30.16,WSW,252,9.0,11.0,62,0.00,,,0.00,Wunderground v.1.15,2013-01-02 18:38:00,
2013-01-02 13:44:00,25.2,14.0,30.16,West,273,7.0,8.0,62,0.00,,,0.00,Wunderground v.1.15,2013-01-02 18:44:00,
2013-01-02 13:50:00,25.4,14.2,30.15,NW,304,6.0,6.0,62,0.00,,,0.00,Wunderground v.1.15,2013-01-02 18:50:00,
2013-01-02 13:56:00,25.4,14.2,30.15,West,281,6.0,10.0,62,0.00,,,0.00,Wunderground v.1.15,2013-01-02 18:56:00,
2013-01-02 14:02:00,25.3,14.1,30.15,SW,235,5.0,8.0,62,0.00,,,0.00,Wunderground v.1.15,2013-01-02 19:02:00,
2013-01-02 14:08:00,25.4,14.2,30.15,WNW,283,5.0,8.0,62,0.00,,,0.00,Wunderground v.1.15,2013-01-02 19:08:00,
2013-01-02 14:14:00,25.2,14.0,30.16,West,273,5.0,8.0,62,0.00,,,0.00,Wunderground v.1.15,2013-01-02 19:14:00,
2013-01-02 14:20:00,25.5,13.9,30.16,West,267,7.0,10.0,61,0.00,,,0.00,Wunderground v.1.15,2013-01-02 19:20:00,
2013-01-02 14:26:00,25.5,14.3,30.17,WNW,292,8.0,10.0,62,0.00,,,0.00,Wunderground v.1.15,2013-01-02 19:26:00,
2013-01-02 14:32:00,25.5,13.9,30.16,West,267,7.0,9.0,61,0.00,,,0.00,Wunderground v.1.15,2013-01-02 19:32:00,
2013-01-02 14:38:00,25.6,14.0,30.16,WNW,290,6.0,9.0,61,0.00,,,0.00,Wunderground v.1.15,2013-01-02 19:38:00,
2013-01-02 14:44:00,25.8,14.2,30.16,SW,232,5.0,9.0,61,0.00,,,0.00,Wunderground v.1.15,2013-01-02 19:44:00,
2013-01-02 14:50:00,26.0,14.4,30.16,WSW,252,5.0,5.0,61,0.00,,,0.00,Wunderground v.1.15,2013-01-02 19:50:00,
2013-01-02 14:56:00,26.2,14.2,30.16,WSW,246,3.0,5.0,60,0.00,,,0.00,Wunderground v.1.15,2013-01-02 19:56:00,
2013-01-02 15:02:00,26.0,14.0,30.16,NW,311,2.0,2.0,60,0.00,,,0.00,Wunderground v.1.15,2013-01-02 20:02:00,
2013-01-02 15:08:00,26.1,13.7,30.17,NW,309,1.0,2.0,59,0.00,,,0.00,Wunderground v.1.15,2013-01-02 20:08:00,
2013-01-02 15:14:00,26.3,14.3,30.17,SW,235,2.0,8.0,60,0.00,,,0.00,Wunderground v.1.15,2013-01-02 20:14:00,
2013-01-02 15:20:00,26.3,14.3,30.17,SW,228,5.0,6.0,60,0.00,,,0.00,Wunderground v.1.15,2013-01-02 20:20:00,
2013-01-02 15:26:00,26.2,14.2,30.16,West,263,6.0,10.0,60,0.00,,,0.00,Wunderground v.1.15,2013-01-02 20:26:00,
2013-01-02 15:32:00,25.9,13.9,30.16,West,261,5.0,5.0,60,0.00,,,0.00,Wunderground v.1.15,2013-01-02 20:32:00,
2013-01-02 15:38:00,25.9,13.5,30.16,West,278,4.0,6.0,59,0.00,,,0.00,Wunderground v.1.15,2013-01-02 20:38:00,
2013-01-02 15:44:00,25.9,13.9,30.16,SW,221,4.0,7.0,60,0.00,,,0.00,Wunderground v.1.15,2013-01-02 20:44:00,
2013-01-02 15:50:00,25.9,13.9,30.17,WSW,238,4.0,4.0,60,0.00,,,0.00,Wunderground v.1.15,2013-01-02 20:50:00,
2013-01-02 15:56:00,26.0,14.0,30.17,West,263,3.0,4.0,60,0.00,,,0.00,Wunderground v.1.15,2013-01-02 20:56:00,
2013-01-02 16:02:00,26.0,13.6,30.17,WNW,283,2.0,3.0,59,0.00,,,0.00,Wunderground v.1.15,2013-01-02 21:02:00,
2013-01-02 16:08:00,25.3,13.3,30.18,WNW,283,2.0,3.0,60,0.00,,,0.00,Wunderground v.1.15,2013-01-02 21:08:00,
2013-01-02 16:14:00,25.2,12.9,30.18,West,278,2.0,5.0,59,0.00,,,0.00,Wunderground v.1.15,2013-01-02 21:14:00,
2013-01-02 16:20:00,25.4,13.1,30.18,WNW,296,5.0,5.0,59,0.00,,,0.00,Wunderground v.1.15,2013-01-02 21:20:00,
2013-01-02 16:26:00,25.3,13.0,30.18,WNW,290,5.0,6.0,59,0.00,,,0.00,Wunderground v.1.15,2013-01-02 21:26:00,
2013-01-02 16:32:00,25.1,12.8,30.18,WSW,250,4.0,4.0,59,0.00,,,0.00,Wunderground v.1.15,2013-01-02 21:32:00,
2013-01-02 16:38:00,25.1,13.2,30.18,WSW,238,3.0,4.0,60,0.00,,,0.00,Wunderground v.1.15,2013-01-02 21:38:00,
2013-01-02 16:44:00,24.7,13.1,30.18,WSW,257,3.0,4.0,61,0.00,,,0.00,Wunderground v.1.15,2013-01-02 21:44:00,
2013-01-02 16:50:00,24.3,12.8,30.19,WSW,244,2.0,2.0,61,0.00,,,0.00,Wunderground v.1.15,2013-01-02 21:50:00,
2013-01-02 16:56:00,23.2,12.1,30.19,WSW,244,1.0,2.0,62,0.00,,,0.00,Wunderground v.1.15,2013-01-02 21:56:00,
2013-01-02 17:02:00,22.8,12.8,30.19,WSW,244,0.0,2.0,65,0.00,,,0.00,Wunderground v.1.15,2013-01-02 22:02:00,
2013-01-02 17:08:00,22.3,12.0,30.19,West,261,1.0,4.0,64,0.00,,,0.00,Wunderground v.1.15,2013-01-02 22:08:00,
2013-01-02 17:14:00,21.9,12.3,30.19,West,261,2.0,2.0,66,0.00,,,0.00,Wunderground v.1.15,2013-01-02 22:14:00,
2013-01-02 17:20:00,20.4,10.5,30.19,West,261,0.0,0.0,65,0.00,,,0.00,Wunderground v.1.15,2013-01-02 22:20:00,
2013-01-02 17:26:00,19.4,10.6,30.19,West,261,0.0,0.0,68,0.00,,,0.00,Wunderground v.1.15,2013-01-02 22:26:00,
2013-01-02 17:32:00,19.1,11.2,30.19,West,261,0.0,0.0,71,0.00,,,0.00,Wunderground v.1.15,2013-01-02 22:32:00,
2013-01-02 17:38:00,18.8,10.9,30.19,West,261,0.0,0.0,71,0.00,,,0.00,Wunderground v.1.15,2013-01-02 22:38:00,
2013-01-02 17:44:00,18.5,11.0,30.19,West,259,0.0,1.0,72,0.00,,,0.00,Wunderground v.1.15,2013-01-02 22:44:00,
2013-01-02 17:50:00,17.9,10.1,30.19,West,259,0.0,1.0,71,0.00,,,0.00,Wunderground v.1.15,2013-01-02 22:50:00,
2013-01-02 17:56:00,17.9,11.0,30.20,WNW,297,1.0,3.0,74,0.00,,,0.00,Wunderground v.1.15,2013-01-02 22:56:00,
2013-01-02 18:02:00,18.0,11.4,30.20,WNW,297,1.0,2.0,75,0.00,,,0.00,Wunderground v.1.15,2013-01-02 23:02:00,
2013-01-02 18:08:00,17.7,10.5,30.20,WNW,297,0.0,2.0,73,0.00,,,0.00,Wunderground v.1.15,2013-01-02 23:08:00,
2013-01-02 18:14:00,17.2,10.6,30.20,WNW,297,0.0,0.0,75,0.00,,,0.00,Wunderground v.1.15,2013-01-02 23:14:00,
2013-01-02 18:20:00,16.3,9.8,30.21,WNW,297,0.0,0.0,75,0.00,,,0.00,Wunderground v.1.15,2013-01-02 23:20:00,
2013-01-02 18:26:00,16.0,10.3,30.21,WNW,296,0.0,2.0,78,0.00,,,0.00,Wunderground v.1.15,2013-01-02 23:26:00,
2013-01-02 18:32:00,15.7,9.8,30.21,WNW,296,0.0,0.0,77,0.00,,,0.00,Wunderground v.1.15,2013-01-02 23:32:00,
2013-01-02 18:38:00,15.1,9.5,30.21,WNW,296,0.0,2.0,78,0.00,,,0.00,Wunderground v.1.15,2013-01-02 23:38:00,
2013-01-02 18:44:00,14.4,8.8,30.21,WNW,296,0.0,0.0,78,0.00,,,0.00,Wunderground v.1.15,2013-01-02 23:44:00,
2013-01-02 18:50:00,14.4,9.4,30.21,WNW,296,0.0,0.0,80,0.00,,,0.00,Wunderground v.1.15,2013-01-02 23:50:00,
2013-01-02 18:56:00,14.5,9.7,30.21,WNW,296,0.0,1.0,81,0.00,,,0.00,Wunderground v.1.15,2013-01-02 23:56:00,
2013-01-02 19:02:00,14.2,9.2,30.21,WNW,296,0.0,0.0,80,0.00,,,0.00,Wunderground v.1.15,2013-01-03 00:02:00,
2013-01-02 19:08:00,13.9,8.9,30.21,WNW,296,0.0,0.0,80,0.00,,,0.00,Wunderground v.1.15,2013-01-03 00:08:00,
2013-01-02 19:14:00,13.5,8.8,30.21,WNW,296,1.0,2.0,81,0.00,,,0.00,Wunderground v.1.15,2013-01-03 00:14:00,
2013-01-02 19:20:00,13.2,8.7,30.22,WNW,296,1.0,1.0,82,0.00,,,0.00,Wunderground v.1.15,2013-01-03 00:20:00,
2013-01-02 19:26:00,13.1,8.9,30.22,WNW,282,1.0,3.0,83,0.00,,,0.00,Wunderground v.1.15,2013-01-03 00:26:00,
2013-01-02 19:34:00,13.3,9.1,30.22,WSW,250,2.0,4.0,83,0.00,,,0.00,Wunderground v.1.15,2013-01-03 00:34:00,
2013-01-02 19:40:00,13.4,9.2,30.22,WSW,250,1.0,1.0,83,0.00,,,0.00,Wunderground v.1.15,2013-01-03 00:40:00,
2013-01-02 19:46:00,13.0,8.3,30.22,WSW,250,0.0,1.0,81,0.00,,,0.00,Wunderground v.1.15,2013-01-03 00:46:00,
2013-01-02 19:52:00,12.7,8.2,30.23,WSW,250,0.0,0.0,82,0.00,,,0.00,Wunderground v.1.15,2013-01-03 00:52:00,
2013-01-02 19:58:00,12.7,8.5,30.23,WSW,250,0.0,0.0,83,0.00,,,0.00,Wunderground v.1.15,2013-01-03 00:58:00,
2013-01-02 20:04:00,12.9,9.0,30.22,WSW,250,0.0,1.0,84,0.00,,,0.00,Wunderground v.1.15,2013-01-03 01:04:00,
2013-01-02 20:10:00,13.7,10.0,30.22,WSW,250,1.0,1.0,85,0.00,,,0.00,Wunderground v.1.15,2013-01-03 01:10:00,
2013-01-02 20:16:00,14.0,9.8,30.22,WSW,250,1.0,1.0,83,0.00,,,0.00,Wunderground v.1.15,2013-01-03 01:16:00,
2013-01-02 20:22:00,13.9,9.7,30.22,WSW,250,0.0,0.0,83,0.00,,,0.00,Wunderground v.1.15,2013-01-03 01:22:00,
2013-01-02 20:28:00,13.8,9.6,30.22,WSW,250,0.0,0.0,83,0.00,,,0.00,Wunderground v.1.15,2013-01-03 01:28:00,
2013-01-02 20:34:00,13.7,9.8,30.22,WSW,250,0.0,0.0,84,0.00,,,0.00,Wunderground v.1.15,2013-01-03 01:34:00,
2013-01-02 20:40:00,13.7,9.8,30.23,WSW,250,0.0,0.0,84,0.00,,,0.00,Wunderground v.1.15,2013-01-03 01:40:00,
2013-01-02 20:46:00,13.8,10.1,30.22,South,177,0.0,3.0,85,0.00,,,0.00,Wunderground v.1.15,2013-01-03 01:46:00,
2013-01-02 20:52:00,13.6,9.4,30.23,South,177,0.0,0.0,83,0.00,,,0.00,Wunderground v.1.15,2013-01-03 01:52:00,
2013-01-02 20:58:00,13.2,9.0,30.23,South,177,0.0,2.0,83,0.00,,,0.00,Wunderground v.1.15,2013-01-03 01:58:00,
2013-01-02 21:04:00,13.2,9.3,30.23,South,177,1.0,1.0,84,0.00,,,0.00,Wunderground v.1.15,2013-01-03 02:04:00,
2013-01-02 21:10:00,13.5,9.6,30.23,West,275,1.0,1.0,84,0.00,,,0.00,Wunderground v.1.15,2013-01-03 02:10:00,
2013-01-02 21:16:00,13.9,10.0,30.23,West,275,0.0,1.0,84,0.00,,,0.00,Wunderground v.1.15,2013-01-03 02:16:00,
2013-01-02 21:22:00,13.8,9.9,30.24,West,275,1.0,2.0,84,0.00,,,0.00,Wunderground v.1.15,2013-01-03 02:22:00,
2013-01-02 21:28:00,13.7,9.8,30.24,West,275,0.0,2.0,84,0.00,,,0.00,Wunderground v.1.15,2013-01-03 02:28:00,
2013-01-02 21:34:00,13.6,9.7,30.24,West,275,0.0,0.0,84,0.00,,,0.00,Wunderground v.1.15,2013-01-03 02:34:00,
2013-01-02 21:40:00,13.6,9.9,30.24,West,275,0.0,1.0,85,0.00,,,0.00,Wunderground v.1.15,2013-01-03 02:40:00,
2013-01-02 21:46:00,13.7,10.0,30.24,West,275,0.0,1.0,85,0.00,,,0.00,Wunderground v.1.15,2013-01-03 02:46:00,
2013-01-02 21:52:00,14.0,10.3,30.25,West,272,1.0,2.0,85,0.00,,,0.00,Wunderground v.1.15,2013-01-03 02:52:00,
2013-01-02 21:58:00,14.3,10.4,30.24,West,272,1.0,2.0,84,0.00,,,0.00,Wunderground v.1.15,2013-01-03 02:58:00,
2013-01-02 22:04:00,14.3,10.4,30.25,West,272,0.0,1.0,84,0.00,,,0.00,Wunderground v.1.15,2013-01-03 03:04:00,
2013-01-02 22:10:00,14.1,10.2,30.25,West,272,0.0,0.0,84,0.00,,,0.00,Wunderground v.1.15,2013-01-03 03:10:00,
2013-01-02 22:16:00,14.0,10.6,30.25,West,272,1.0,2.0,86,0.00,,,0.00,Wunderground v.1.15,2013-01-03 03:16:00,
2013-01-02 22:22:00,14.0,10.3,30.25,West,272,1.0,1.0,85,0.00,,,0.00,Wunderground v.1.15,2013-01-03 03:22:00,
2013-01-02 22:28:00,13.8,10.1,30.25,West,272,0.0,1.0,85,0.00,,,0.00,Wunderground v.1.15,2013-01-03 03:28:00,
2013-01-02 22:38:00,13.7,10.0,30.26,West,272,0.0,0.0,85,0.00,,,0.00,Wunderground v.1.15,2013-01-03 03:38:00,
2013-01-02 22:48:00,13.3,9.9,30.26,West,272,0.0,0.0,86,0.00,,,0.00,Wunderground v.1.15,2013-01-03 03:48:00,
2013-01-02 22:54:00,13.1,9.7,30.26,West,272,0.0,0.0,86,0.00,,,0.00,Wunderground v.1.15,2013-01-03 03:54:00,
2013-01-02 23:00:00,13.0,9.6,30.26,West,272,0.0,0.0,86,0.00,,,0.00,Wunderground v.1.15,2013-01-03 04:00:00,
2013-01-02 23:06:00,12.7,9.0,30.26,West,272,0.0,1.0,85,0.00,,,0.00,Wunderground v.1.15,2013-01-03 04:06:00,
2013-01-02 23:12:00,12.6,8.9,30.26,West,280,0.0,0.0,85,0.00,,,0.00,Wunderground v.1.15,2013-01-03 04:12:00,
2013-01-02 23:18:00,12.5,9.1,30.26,West,280,1.0,1.0,86,0.00,,,0.00,Wunderground v.1.15,2013-01-03 04:18:00,
2013-01-02 23:24:00,12.6,9.2,30.26,West,281,0.0,0.0,86,0.00,,,0.00,Wunderground v.1.15,2013-01-03 04:24:00,
2013-01-02 23:30:00,12.5,9.1,30.26,West,281,0.0,0.0,86,0.00,,,0.00,Wunderground v.1.15,2013-01-03 04:30:00,
2013-01-02 23:36:00,12.6,9.2,30.26,West,281,0.0,0.0,86,0.00,,,0.00,Wunderground v.1.15,2013-01-03 04:36:00,
2013-01-02 23:42:00,12.6,9.5,30.26,West,279,0.0,2.0,87,0.00,,,0.00,Wunderground v.1.15,2013-01-03 04:42:00,
2013-01-02 23:48:00,12.5,9.4,30.26,West,279,0.0,2.0,87,0.00,,,0.00,Wunderground v.1.15,2013-01-03 04:48:00,
2013-01-02 23:54:00,12.6,9.5,30.25,West,281,0.0,2.0,87,0.00,,,0.00,Wunderground v.1.15,2013-01-03 04:54:00,